When you browse on this site, cookies collect data to enhance your experience and personalize the content and advertising you see.
Visit our Privacy Policy to learn more. By continuing to use the site, you agree to this use of cookies and data.
  • In United Kingdom
  • List of Countries
  • For 7 days
  • Water Temperature
  • Weather Map
  • Weather Widgets
  • user-avatar
    Login

    Hourly Weather Kiustendil

    Today, 17 November, Sunday

    Time Temperature Precipitation Wind Pressure Humidity
    00:00 +4°C° 0 mm 1 mps 625 mmHg 87%
    01:00 +3°C° 0 mm 1 mps 625 mmHg 87%
    02:00 +3°C° 0 mm 1 mps 625 mmHg 87%
    03:00 +3°C° 0 mm 1 mps 625 mmHg 86%
    04:00 +3°C° 0 mm 1 mps 625 mmHg 86%
    05:00 +3°C° 0 mm 1 mps 624 mmHg 85%
    06:00 +3°C° 0 mm 1 mps 624 mmHg 84%
    07:00 +3°C° 0 mm 1 mps 624 mmHg 83%
    08:00 +5°C° 0 mm 1 mps 625 mmHg 75%
    09:00 +6°C° 0 mm 1 mps 626 mmHg 66%
    10:00 +8°C° 0 mm 1 mps 626 mmHg 58%
    11:00 +8°C° 0 mm 2 mps 626 mmHg 56%
    12:00 +9°C° 0 mm 2 mps 626 mmHg 53%
    13:00 +10°C° 0 mm 2 mps 626 mmHg 51%
    14:00 +8°C° 0 mm 2 mps 625 mmHg 57%
    15:00 +8°C° 0 mm 1 mps 625 mmHg 64%
    16:00 +7°C° 0 mm 1 mps 624 mmHg 70%
    17:00 +6°C° 0 mm 1 mps 624 mmHg 75%
    18:00 +5°C° 0 mm 1 mps 624 mmHg 79%
    19:00 +5°C° 0 mm 1 mps 623 mmHg 83%
    20:00 +5°C° 0 mm 1 mps 623 mmHg 84%
    21:00 +4°C° 0 mm 1 mps 623 mmHg 86%
    22:00 +4°C° 0 mm 1 mps 623 mmHg 87%
    23:00 +3°C° 0 mm 2 mps 623 mmHg 88%

    Tomorrow, 18 November, Monday

    Time Temperature Precipitation Wind Pressure Humidity
    00:00 +3°C° 0 mm 2 mps 623 mmHg 88%
    01:00 +3°C° 0 mm 2 mps 622 mmHg 88%
    02:00 +3°C° 0 mm 2 mps 622 mmHg 89%
    03:00 +3°C° 0 mm 2 mps 622 mmHg 90%
    04:00 +3°C° 0 mm 2 mps 622 mmHg 91%
    05:00 +3°C° 0 mm 2 mps 622 mmHg 91%
    06:00 +4°C° 0 mm 1 mps 622 mmHg 92%
    07:00 +4°C° 0 mm 1 mps 623 mmHg 92%
    08:00 +5°C° 2.1 mm 1 mps 623 mmHg 89%
    09:00 +4°C° 2.1 mm 2 mps 623 mmHg 86%
    10:00 +5°C° 2.1 mm 2 mps 624 mmHg 83%
    11:00 +6°C° 0.4 mm 2 mps 624 mmHg 80%
    12:00 +7°C° 0.4 mm 2 mps 625 mmHg 76%
    13:00 +8°C° 0.4 mm 2 mps 625 mmHg 72%
    14:00 +7°C° 0 mm 2 mps 625 mmHg 76%
    15:00 +7°C° 0 mm 1 mps 625 mmHg 81%
    16:00 +6°C° 0 mm 1 mps 624 mmHg 85%
    17:00 +6°C° 0 mm 1 mps 624 mmHg 86%
    18:00 +5°C° 0 mm 1 mps 625 mmHg 87%
    19:00 +5°C° 0 mm 1 mps 625 mmHg 88%
    20:00 +4°C° 0 mm 1 mps 625 mmHg 89%
    21:00 +4°C° 0 mm 1 mps 625 mmHg 89%
    22:00 +4°C° 0 mm 1 mps 625 mmHg 90%
    23:00 +4°C° 0 mm 1 mps 625 mmHg 90%

    Day after tomorrow, 19 November, Tuesday

    Time Temperature Precipitation Wind Pressure Humidity
    00:00 +4°C° 0 mm 1 mps 625 mmHg 91%
    01:00 +4°C° 0 mm 1 mps 625 mmHg 91%
    02:00 +4°C° 0 mm 1 mps 625 mmHg 91%
    03:00 +4°C° 0 mm 1 mps 625 mmHg 92%
    04:00 +4°C° 0 mm 1 mps 625 mmHg 92%
    05:00 +4°C° 0 mm 1 mps 625 mmHg 92%
    06:00 +4°C° 0 mm 1 mps 625 mmHg 92%
    07:00 +4°C° 0 mm 1 mps 625 mmHg 92%
    08:00 +5°C° 0 mm 1 mps 626 mmHg 86%
    09:00 +7°C° 0 mm 1 mps 626 mmHg 81%
    10:00 +7°C° 0 mm 2 mps 627 mmHg 76%
    11:00 +8°C° 0.1 mm 2 mps 627 mmHg 72%
    12:00 +9°C° 0.1 mm 2 mps 627 mmHg 69%
    13:00 +9°C° 0.1 mm 2 mps 627 mmHg 66%
    14:00 +8°C° 0.2 mm 2 mps 626 mmHg 71%
    15:00 +7°C° 0.2 mm 2 mps 625 mmHg 77%
    16:00 +7°C° 0.2 mm 1 mps 625 mmHg 82%
    17:00 +6°C° 0.1 mm 1 mps 625 mmHg 84%
    18:00 +6°C° 0.1 mm 1 mps 624 mmHg 85%
    19:00 +5°C° 0.1 mm 2 mps 624 mmHg 86%
    20:00 +6°C° 0.3 mm 1 mps 624 mmHg 86%
    21:00 +6°C° 0.3 mm 1 mps 624 mmHg 87%
    22:00 +6°C° 0.3 mm 1 mps 624 mmHg 87%
    23:00 +4°C° 2.9 mm 2 mps 623 mmHg 90%

    20 November, Wednesday

    Time Temperature Precipitation Wind Pressure Humidity
    00:00 +4°C° 2.9 mm 2 mps 623 mmHg 93%
    01:00 +4°C° 2.9 mm 2 mps 623 mmHg 96%
    02:00 +3°C° 3.6 mm 2 mps 623 mmHg 94%
    03:00 +3°C° 3.6 mm 2 mps 622 mmHg 91%
    04:00 +2°C° 3.6 mm 2 mps 622 mmHg 89%
    05:00 +2°C° 0.1 mm 2 mps 622 mmHg 89%
    06:00 +3°C° 0.1 mm 1 mps 622 mmHg 89%
    07:00 +3°C° 0.1 mm 1 mps 622 mmHg 89%
    08:00 +4°C° 0 mm 1 mps 623 mmHg 84%
    09:00 +5°C° 0 mm 1 mps 623 mmHg 79%
    10:00 +7°C° 0 mm 1 mps 624 mmHg 74%
    11:00 +7°C° 0.1 mm 1 mps 624 mmHg 69%
    12:00 +7°C° 0.1 mm 2 mps 624 mmHg 65%
    13:00 +8°C° 0.1 mm 2 mps 624 mmHg 61%
    14:00 +7°C° 0 mm 2 mps 623 mmHg 66%
    15:00 +6°C° 0 mm 1 mps 623 mmHg 70%
    16:00 +5°C° 0 mm 1 mps 623 mmHg 75%
    17:00 +5°C° 0 mm 1 mps 623 mmHg 77%
    18:00 +4°C° 0 mm 1 mps 623 mmHg 78%
    19:00 +4°C° 0 mm 1 mps 623 mmHg 80%
    20:00 +4°C° 0 mm 1 mps 623 mmHg 80%
    21:00 +3°C° 0 mm 1 mps 623 mmHg 80%
    22:00 +3°C° 0 mm 1 mps 623 mmHg 81%
    23:00 +2°C° 0 mm 0 mps 623 mmHg 82%

    21 November, Thursday

    Time Temperature Precipitation Wind Pressure Humidity
    00:00 +2°C° 0 mm 0 mps 623 mmHg 83%
    01:00 +1°C° 0 mm 0 mps 623 mmHg 84%
    02:00 +1°C° 0 mm 0 mps 623 mmHg 85%
    03:00 +1°C° 0 mm 0 mps 623 mmHg 85%
    04:00 +1°C° 0 mm 0 mps 623 mmHg 86%
    05:00 +1°C° 0 mm 0 mps 623 mmHg 86%
    06:00 +1°C° 0 mm 0 mps 623 mmHg 85%
    07:00 +1°C° 0 mm 0 mps 623 mmHg 85%
    08:00 +2°C° 0 mm 0 mps 624 mmHg 80%
    09:00 +3°C° 0 mm 0 mps 625 mmHg 74%
    10:00 +5°C° 0 mm 0 mps 625 mmHg 69%
    11:00 +7°C° 0 mm 1 mps 625 mmHg 65%
    12:00 +7°C° 0 mm 1 mps 625 mmHg 61%
    13:00 +8°C° 0 mm 1 mps 625 mmHg 57%
    14:00 +7°C° 0 mm 1 mps 625 mmHg 63%
    15:00 +5°C° 0 mm 0 mps 624 mmHg 69%
    16:00 +3°C° 0 mm 0 mps 624 mmHg 75%
    17:00 +3°C° 0 mm 0 mps 624 mmHg 76%
    18:00 +3°C° 0 mm 0 mps 624 mmHg 77%
    19:00 +2°C° 0 mm 0 mps 624 mmHg 78%
    20:00 +2°C° 0 mm 0 mps 624 mmHg 79%
    21:00 +2°C° 0 mm 0 mps 624 mmHg 79%
    22:00 +3°C° 0 mm 1 mps 625 mmHg 80%
    23:00 +2°C° 0 mm 0 mps 624 mmHg 81%

    22 November, Friday

    Time Temperature Precipitation Wind Pressure Humidity
    00:00 +1°C° 0 mm 0 mps 624 mmHg 82%
    01:00 +1°C° 0 mm 0 mps 624 mmHg 83%
    02:00 +1°C° 0 mm 0 mps 624 mmHg 84%
    03:00 +1°C° 0 mm 0 mps 624 mmHg 85%
    04:00 0°C° 0 mm 0 mps 624 mmHg 87%
    05:00 +1°C° 0 mm 1 mps 624 mmHg 87%
    06:00 +1°C° 0 mm 1 mps 625 mmHg 87%
    07:00 +1°C° 0 mm 1 mps 625 mmHg 88%
    08:00 +3°C° 0 mm 1 mps 626 mmHg 81%
    09:00 +5°C° 0 mm 1 mps 626 mmHg 75%
    10:00 +6°C° 0 mm 1 mps 627 mmHg 68%
    11:00 +7°C° 0 mm 1 mps 627 mmHg 66%
    12:00 +8°C° 0 mm 1 mps 627 mmHg 63%
    13:00 +8°C° 0 mm 1 mps 627 mmHg 61%
    14:00 +7°C° 0 mm 1 mps 627 mmHg 66%
    15:00 +6°C° 0 mm 1 mps 626 mmHg 72%
    16:00 +4°C° 0 mm 0 mps 626 mmHg 77%
    17:00 +4°C° 0 mm 1 mps 626 mmHg 79%
    18:00 +4°C° 0 mm 1 mps 626 mmHg 82%
    19:00 +4°C° 0 mm 1 mps 626 mmHg 84%
    20:00 +3°C° 0 mm 1 mps 627 mmHg 85%
    21:00 +3°C° 0 mm 1 mps 627 mmHg 87%
    22:00 +3°C° 0 mm 1 mps 627 mmHg 88%
    23:00 +3°C° 0 mm 1 mps 627 mmHg 88%
    Show more